Tracking 18852 objects as of 24-Nov-2017
HD Live streaming from Space Station
objects crossing your sky now

FENGYUN 1C DEB

Track FENGYUN 1C DEB now!
10-day predictions


NORAD ID: 40686
Int'l Code: 1999-025EWS
Perigee: 699.0 km
Apogee: 717.8 km
Inclination: 99.2 °
Period: 98.8 minutes
Semi major axis: 7079 km
RCS: Unknown
Launch date: May 10, 1999
Source: People's Republic of China (PRC)
Launch site: Taiyaun Space Center, China (TSC)

Note: This is SATELLITE DEBRIS
aabbcc
Your satellite tracking list
Your tracking list is empty




NASA's NSSDC Master Catalog

Two Line Element Set (TLE):
1 40686U 99025EWS 17327.03118303  .00006393  00000-0  14161-2 0  9994
2 40686  99.2433 252.1698 0013320   6.6419 353.4951 14.57500327154288
Source of the keplerian elements: AFSPC